Theta_e
326 327 327 327 327 327 327 327 327 327 327 328 329 329 329 328 325 327 327 328 329 327 321 319 319 321 317 318 315 313 312 309 308 310 310 310 307 303 303 303 304 302 300 299
326 326 324 325 325 325 325 326 327 328 328 328 328 329 329 329 325 326 326 326 327 326 320 319 318 318 317 316 313 311 308 308 307 307 306 305 305 304 306 306 306 305 302 300
326 325 324 323 323 323 324 326 327 328 328 328 328 329 329 327 324 324 324 324 325 325 322 320 318 317 315 314 312 310 308 307 307 305 304 309 309 308 311 312 311 310 308 303
325 324 323 323 322 323 322 323 326 327 328 328 329 331 330 328 325 324 323 324 322 322 321 320 319 318 316 314 312 310 310 308 305 306 309 312 313 311 315 315 314 311 303 301
324 323 323 323 322 323 323 326 325 326 327 327 327 329 327 328 327 323 323 322 321 320 319 319 319 318 317 315 313 311 309 307 305 310 316 313 310 312 315 314 314 311 299 299
323 321 322 322 322 322 324 326 326 327 328 328 326 327 327 328 328 323 320 320 320 320 319 319 318 318 317 315 313 311 309 307 306 313 313 308 309 311 311 311 307 300 299 298
324 323 322 322 323 323 323 325 327 327 329 331 328 328 328 329 328 323 322 321 320 320 319 319 317 317 317 315 313 312 310 309 310 310 302 308 310 310 308 303 303 304 302 301
324 327 325 326 327 328 326 326 327 327 328 329 327 329 328 326 322 320 320 320 321 321 320 319 318 317 316 316 314 312 310 310 309 306 307 309 309 308 308 305 303 300 299 299
325 325 325 326 326 326 329 327 328 329 326 329 328 327 327 324 322 321 321 321 322 321 320 319 318 317 316 316 315 313 311 310 309 307 310 310 307 306 307 307 302 300 299 300
326 326 325 326 325 325 325 326 327 328 333 331 327 326 330 325 324 322 323 322 322 321 320 319 317 317 316 315 315 314 311 311 309 308 310 309 306 307 307 305 301 300 300 299
325 326 327 326 326 327 327 327 328 327 328 330 328 326 326 326 324 323 322 322 320 320 318 315 314 313 314 313 313 312 311 310 309 309 308 304 307 305 306 306 302 302 301 300
327 328 327 327 327 326 326 326 325 326 326 327 328 327 323 323 322 321 322 320 319 316 314 312 311 310 310 309 310 309 309 308 308 308 306 308 306 308 308 306 304 304 303 303
327 328 329 328 328 326 326 326 324 324 326 326 329 325 322 322 322 321 321 319 316 314 313 313 311 310 308 308 307 307 306 307 307 306 305 306 306 305 305 305 304 304 303 303
324 326 327 328 326 324 324 323 322 324 330 327 326 323 321 321 322 321 319 318 315 309 307 306 306 305 305 305 304 303 303 302 302 302 302 303 303 302 302 302 301 301 301 301
322 324 323 323 323 322 322 322 322 323 324 327 324 321 321 321 320 317 315 310 308 306 304 304 303 303 302 301 301 301 301 300 299 300 299 299 298 297 297 297 297 297 297 297
321 323 322 321 320 320 320 320 319 320 321 321 320 321 320 316 313 311 309 307 306 304 304 303 302 300 300 299 299 299 298 298 297 296 295 293 292 291 291 291 291 291 291 292
321 322 322 322 320 320 321 320 320 319 319 320 321 320 319 319 312 310 308 306 304 304 302 301 300 300 299 297 296 295 294 293 292 290 290 289 289 289 289 289 289 290 290 290
321 321 321 322 320 324 320 319 317 318 319 319 319 318 315 313 309 307 306 305 304 302 301 300 299 299 297 294 292 291 291 290 289 289 289 288 288 288 288 288 288 288 288 288
318 320 323 323 321 320 319 318 319 319 320 317 317 316 312 309 308 306 304 304 302 300 299 298 297 296 293 291 290 290 289 289 288 288 288 287 287 287 287 287 287 287 287 287
316 317 320 322 321 319 317 316 315 316 320 315 315 315 313 307 309 308 304 301 299 298 297 296 294 291 290 289 289 289 289 288 288 287 287 286 286 286 286 286 286 286 286 286
316 316 320 320 322 320 317 316 315 321 321 313 312 311 307 306 306 304 302 299 298 296 295 291 290 289 289 288 288 288 288 288 287 286 285 285 285 285 285 284 285 285 285 284
319 319 319 318 326 320 316 315 319 319 315 313 312 308 305 305 304 303 301 298 296 295 292 289 288 288 288 287 287 287 288 287 285 284 284 284 284 284 284 283 284 284 284 284
319 318 321 318 319 317 315 316 316 314 314 314 311 306 303 304 304 303 299 297 295 291 289 288 288 288 287 287 286 286 286 285 284 284 283 283 283 283 283 283 283 283 283 282
316 315 318 318 317 317 318 317 316 315 312 309 307 304 303 305 304 301 298 295 292 289 288 288 288 287 287 286 286 285 284 283 283 282 282 282 282 282 282 282 282 281 281 280
317 316 318 320 316 316 316 315 315 314 308 305 304 304 304 305 302 299 296 292 288 287 287 287 287 287 286 286 285 284 283 282 282 281 281 281 281 281 281 281 280 279 280 279
314 316 320 319 315 316 314 314 314 312 308 305 304 303 303 302 299 296 292 289 287 287 287 287 286 286 285 285 284 283 282 281 281 280 280 280 280 280 280 279 278 279 278 278
Wind_Speed
15 9 12 11 11 12 10 11 12 13 11 6 13 10 10 7 3 7 7 7 7 7 8 7 8 9 9 7 8 8 8 7 6 4 7 6 4 1 4 8 12 15 18 17
10 13 12 8 7 10 12 14 14 11 3 3 14 10 11 7 6 4 6 7 9 10 8 9 8 9 10 10 10 9 9 9 9 10 8 5 2 3 8 11 13 16 18 19
14 13 5 4 12 12 12 12 14 12 11 12 17 16 21 8 8 9 7 7 8 8 6 6 8 10 10 11 12 10 11 11 10 8 6 3 5 3 4 13 15 20 23 21
12 15 14 12 15 13 15 13 10 14 14 12 5 11 6 16 10 8 8 8 9 7 4 4 8 10 11 11 11 11 11 12 13 11 8 4 9 10 16 22 28 29 22 25
12 8 10 12 12 6 12 4 10 12 13 15 17 11 14 14 11 9 9 8 7 7 3 2 6 10 11 12 13 13 13 14 14 10 12 9 8 12 17 24 28 23 20 19
16 14 7 12 11 9 10 9 14 13 12 13 18 15 15 8 4 4 9 8 7 5 3 4 4 8 11 12 15 15 16 16 16 12 10 5 7 13 18 22 17 18 19 20
13 13 13 8 11 13 13 12 9 11 9 11 10 7 7 13 16 14 10 9 7 5 7 8 6 8 10 14 17 16 16 14 13 12 6 4 10 15 15 14 13 16 18 18
6 6 5 3 6 8 3 8 8 11 11 14 6 6 3 14 16 14 10 8 4 8 11 12 10 9 10 13 18 18 16 16 12 10 5 5 14 18 20 12 16 20 21 23
2 2 6 3 2 5 1 5 7 8 13 11 13 12 15 9 7 8 7 4 9 12 15 15 13 13 12 12 16 18 16 16 14 11 6 6 16 21 17 25 23 24 24 26
3 5 4 5 5 2 7 6 7 2 5 7 8 9 3 10 13 4 6 8 13 17 17 15 15 15 13 11 11 14 14 15 15 12 9 10 17 21 36 20 25 26 27 27
5 4 3 3 8 2 8 2 3 5 3 4 5 6 2 9 4 3 6 8 11 13 13 13 14 14 10 8 5 8 10 10 11 11 13 23 22 35 35 31 25 24 25 25
5 4 8 2 3 4 5 5 2 2 3 3 2 7 3 6 2 4 4 8 10 10 9 11 12 12 12 9 3 0 5 7 13 14 18 22 32 32 20 19 19 21 24 24
4 4 6 4 2 1 4 2 5 6 3 9 5 5 1 4 7 5 4 6 7 7 9 10 11 13 13 12 9 5 4 6 11 16 22 20 17 19 18 20 22 25 28 28
3 7 8 8 6 4 8 10 11 10 4 9 12 19 18 16 9 8 4 4 6 8 8 9 10 11 12 12 11 10 9 9 12 14 15 15 16 17 18 21 25 28 29 31
4 8 11 12 13 12 13 15 15 16 16 16 17 19 13 11 7 6 7 6 6 6 7 8 9 9 10 11 11 12 13 14 15 15 16 17 18 19 20 22 25 27 29 31
3 6 6 3 13 15 15 19 18 18 18 18 17 15 4 3 4 5 4 3 3 4 5 7 8 9 10 11 12 13 14 15 15 16 17 18 20 21 21 22 24 25 26 27
4 4 4 10 10 6 11 15 16 14 12 10 12 13 16 5 4 4 3 2 2 3 4 5 6 8 9 11 13 14 15 15 16 16 17 18 19 21 22 23 25 26 27 27
9 6 4 4 8 5 11 2 4 6 7 9 8 13 11 9 8 5 3 4 2 2 3 4 6 7 9 12 13 13 13 14 15 16 18 20 22 23 25 26 27 27 29 29
14 6 2 4 9 11 15 8 7 5 9 4 2 8 4 3 5 6 5 5 3 2 2 4 6 8 10 11 12 12 13 14 16 19 21 22 24 26 27 28 28 29 30 32
3 4 5 5 6 5 2 5 4 4 10 9 7 8 5 7 3 2 7 5 4 2 2 5 8 8 9 10 11 13 14 16 18 20 22 23 24 26 28 29 30 30 31 33
4 3 10 10 5 8 11 8 2 3 2 2 5 6 5 6 2 10 8 5 3 1 3 6 7 7 8 10 12 13 15 16 19 21 23 24 25 26 27 29 30 32 33 35
10 7 5 7 5 8 6 6 5 4 1 5 7 5 7 7 6 6 7 6 3 1 4 6 6 6 8 10 12 13 15 17 20 22 23 25 26 27 28 30 31 32 34 36
11 11 6 7 5 5 5 2 3 4 8 8 6 8 11 8 9 10 8 6 4 2 4 5 6 7 8 10 12 14 16 19 21 23 25 26 27 28 29 31 33 35 35 35
9 11 7 8 10 14 10 9 10 9 6 3 7 11 13 9 11 10 8 6 3 2 3 5 6 7 9 11 12 14 17 19 22 24 26 26 28 30 30 31 32 34 36 37
3 5 10 12 15 15 20 19 9 5 5 6 8 10 10 11 11 10 8 6 4 2 2 5 6 7 9 12 12 15 18 20 23 24 25 26 28 31 33 33 34 37 35 36
13 11 9 9 12 12 14 13 4 9 10 10 10 9 10 12 12 9 7 6 4 2 3 5 6 8 10 11 13 16 18 20 22 25 25 28 31 32 34 41 44 35 35 35
Wind_Direction
212 250 244 281 332 325 302 294 282 282 287 269 267 265 264 102 223 174 176 170 171 177 183 191 202 211 205 222 212 221 214 188 171 161 162 167 156 187 336 332 335 344 344 344
238 247 268 354 310 283 275 273 273 282 323 284 273 260 270 146 157 136 152 158 166 169 183 195 212 223 228 229 218 220 211 206 198 202 202 208 258 12 21 358 350 341 343 342
241 275 122 266 281 273 266 266 279 286 299 260 255 256 247 117 160 130 122 134 152 165 183 206 216 219 219 222 223 210 209 203 192 187 162 125 61 101 302 327 326 331 326 329
259 268 271 267 262 263 272 262 249 266 271 274 19 289 163 180 165 149 131 129 131 134 148 212 232 231 225 225 218 205 198 206 196 182 166 205 271 285 306 304 312 315 326 327
231 209 228 243 261 314 277 328 262 277 278 279 268 251 251 159 176 136 124 127 121 103 67 299 251 243 230 226 220 208 212 207 214 228 284 289 310 320 321 323 308 311 321 318
254 273 257 275 294 262 283 263 258 244 255 258 263 256 271 172 44 167 141 128 110 89 20 338 284 252 239 229 222 219 215 221 227 260 265 294 345 339 337 331 321 320 320 317
230 236 234 235 270 244 243 262 277 276 244 253 21 290 293 139 182 163 159 117 93 43 1 345 319 276 254 237 227 224 227 223 232 248 244 317 336 346 336 332 323 319 319 317
262 179 174 136 271 331 235 277 263 279 297 306 166 265 85 117 135 136 114 102 73 24 7 360 339 309 279 255 236 231 234 232 233 223 208 292 336 338 338 314 298 308 311 316
302 170 116 50 299 298 335 251 359 305 279 269 268 283 4 69 122 126 118 132 25 1 4 1 350 338 310 275 253 234 237 237 233 223 239 294 332 340 321 308 285 302 310 310
23 266 174 121 269 186 298 2 308 239 305 300 318 325 8 54 319 231 129 20 358 356 0 359 354 344 326 300 269 234 237 240 239 229 263 300 316 320 319 290 287 299 303 307
279 252 156 197 222 128 241 166 357 321 329 297 303 302 117 184 277 250 304 348 354 360 11 5 2 355 347 330 292 247 240 237 241 247 285 303 304 304 306 293 285 292 296 300
56 307 263 119 52 356 312 313 281 294 288 265 318 273 64 62 59 302 343 358 19 30 23 21 20 25 28 29 34 250 240 244 249 277 294 292 295 307 302 291 286 291 293 292
358 266 254 253 211 193 227 219 306 295 358 266 272 276 41 253 281 32 320 5 40 39 34 34 33 38 41 41 44 32 355 299 291 304 309 313 314 309 305 297 294 291 291 290
294 268 271 279 303 218 268 284 281 261 220 264 267 293 300 297 10 65 53 72 67 64 57 51 45 40 39 36 31 23 2 334 331 337 334 332 327 321 312 297 289 286 286 286
316 266 279 295 308 300 287 278 271 265 245 252 276 292 337 19 39 70 91 91 89 72 56 45 38 33 28 24 16 5 357 344 342 343 341 336 330 326 321 315 307 303 302 297
209 273 278 294 280 267 271 267 264 260 260 269 279 285 21 68 99 85 87 107 102 79 51 44 39 29 19 10 2 353 348 345 345 341 335 330 326 323 322 319 316 313 310 306
275 261 249 269 266 295 284 260 249 256 264 260 286 309 1 203 169 123 141 135 104 55 46 43 30 14 5 359 349 341 337 336 339 341 340 337 335 331 328 325 322 318 316 314
237 234 254 257 278 245 242 306 337 302 294 295 331 356 3 37 98 123 105 147 126 72 36 20 5 357 349 342 340 341 342 342 342 339 337 334 332 328 325 323 321 317 315 313
227 247 247 242 236 265 275 271 265 266 284 46 28 11 21 116 125 132 138 123 133 105 29 0 348 339 335 337 343 343 341 340 339 335 335 332 329 325 324 321 319 317 314 313
37 244 203 211 246 240 79 136 64 332 266 93 51 358 313 186 233 91 168 153 136 99 358 339 328 330 335 338 341 341 338 337 335 332 330 328 326 324 322 321 319 316 316 312
171 197 221 230 256 266 272 125 154 215 70 122 335 315 227 218 150 146 161 162 160 112 332 335 329 334 333 336 338 339 336 331 330 328 327 327 326 324 323 320 317 317 315 313
185 194 188 215 234 257 233 155 221 76 61 302 293 258 197 170 189 182 187 185 195 280 315 323 328 327 331 337 339 337 331 328 328 328 329 328 327 325 323 320 320 317 316 314
219 223 209 209 219 146 181 322 332 303 300 300 238 194 200 201 220 199 196 198 219 288 310 320 321 324 334 338 339 333 329 330 329 330 330 328 326 325 321 324 320 319 317 314
226 238 260 261 263 252 233 260 257 267 276 227 197 205 206 223 201 198 199 211 238 273 291 311 317 324 333 332 333 330 329 331 332 331 330 328 327 324 325 323 321 319 317 317
258 214 234 257 264 277 273 276 295 223 195 194 195 209 234 207 198 197 204 217 222 233 294 310 318 329 331 327 329 329 331 333 333 331 330 328 327 325 323 319 319 317 315 314
252 244 249 247 259 254 288 283 252 196 207 204 206 199 188 190 189 192 201 207 206 230 294 303 320 329 324 325 325 331 333 335 334 331 330 327 324 325 321 320 321 321 317 317